Tracking 30102 objects as of 13-Dec-2024
HD Live streaming from Space Station
objects crossing your sky now

FREGAT R/B

Track FREGAT R/B now!


NORAD ID: 40891
Int'l Code: 2015-045C
Perigee: 23,461.3 km
Apogee: 23,618.1 km
Inclination: 55.0 °
Period: 858.0 minutes
Semi major axis: 29910 km
RCS: Unknown
Launch date: September 11, 2015
Source: Commonwealth of Independent States (former USSR) (CIS)
Launch site: FRENCH GUIANA (FRGUI)

Note: This is a ROCKET BODY
Your satellite tracking list
Your tracking list is empty




NASA's NSSDC Master Catalog

Two Line Element Set (TLE):
1 40891U 15045C   24345.84227736  .00000016  00000-0  00000-0 0  9991
2 40891  55.0178 239.7274 0026216 229.2979 130.5430  1.67827538 56713
Source of the keplerian elements: AFSPC